^^
Datos históricos de la estación: Murcia-Puente Tocinos
Diario Informe para Diciembre 11, 2019 Unidades:  Métrico    Inglés   Ambas
Diario Semanal Mensual Anual Configurable
  Máximo: Mínimo: Media:
Temperatura: 20.1 °C 9.6 °C 13.7 °C
Punto de rocio: 6.4 °C -0.9 °C 2.4 °C
Humedad: 59% 33% 47%
Velocidad viento: 27.4km/h 3.2km/h 11.1km/h
Racha viento: 51.5km/h - -
Viento- - WSW
Presión: 1023.1 hPa 1016.8 hPa -
Precipitación: 0.0 mm    
Historical Graphs
 
 
Tabla de datos para Diciembre 11, 2019
Hora Temperatura Punto de rocio Presión Viento Velocidad viento Racha viento Humedad Intensidad lluvia(por hora) Nubes
00:00 12.1 °C 3.8 °C 1022.2 hPa South 12.9 km/h 19.3 km/h 57% 0.0 mm CLR
00:05 12.2 °C 3.7 °C 1022.2 hPa South 11.3 km/h 19.3 km/h 56% 0.0 mm CLR
00:10 12.1 °C 3.6 °C 1022.0 hPa SSW 11.3 km/h 16.1 km/h 56% 0.0 mm CLR
00:15 11.9 °C 3.7 °C 1022.0 hPa SSW 9.7 km/h 12.9 km/h 57% 0.0 mm CLR
00:20 11.9 °C 3.4 °C 1022.0 hPa SSW 9.7 km/h 12.9 km/h 56% 0.0 mm CLR
00:25 11.9 °C 3.4 °C 1022.2 hPa SW 8.0 km/h 11.3 km/h 56% 0.0 mm CLR
00:30 11.9 °C 3.4 °C 1022.2 hPa SW 8.0 km/h 12.9 km/h 56% 0.0 mm CLR
00:35 11.8 °C 3.3 °C 1022.2 hPa WSW 8.4 km/h 5.6 km/h 56% 0.0 mm CLR
00:40 11.6 °C 3.6 °C 1022.0 hPa WSW 8.0 km/h 12.9 km/h 58% 0.0 mm CLR
00:45 11.2 °C 3.5 °C 1022.0 hPa WSW 8.0 km/h 14.5 km/h 59% 0.0 mm CLR
00:50 11.1 °C 3.4 °C 1022.0 hPa SW 8.0 km/h 19.3 km/h 59% 0.0 mm CLR
00:55 11.4 °C 3.2 °C 1021.9 hPa SW 9.7 km/h 19.3 km/h 57% 0.0 mm CLR
01:00 11.7 °C 3.2 °C 1021.9 hPa SW 9.7 km/h 20.9 km/h 56% 0.0 mm CLR
01:05 11.6 °C 3.2 °C 1021.9 hPa SW 11.3 km/h 19.3 km/h 56% 0.0 mm CLR
01:10 11.5 °C 3.0 °C 1021.8 hPa SSW 11.3 km/h 22.5 km/h 56% 0.0 mm CLR
01:15 11.4 °C 2.9 °C 1021.8 hPa SSW 11.3 km/h 20.9 km/h 56% 0.0 mm CLR
01:20 11.4 °C 2.9 °C 1021.8 hPa SSW 11.3 km/h 20.9 km/h 56% 0.0 mm CLR
01:25 11.3 °C 2.8 °C 1021.6 hPa SSW 12.9 km/h 16.1 km/h 56% 0.0 mm CLR
01:30 11.3 °C 2.8 °C 1021.6 hPa SSW 12.9 km/h 16.1 km/h 56% 0.0 mm CLR
01:35 11.4 °C 2.7 °C 1021.6 hPa SSW 11.3 km/h 19.3 km/h 55% 0.0 mm CLR
01:40 11.6 °C 2.6 °C 1021.5 hPa SSW 11.3 km/h 19.3 km/h 54% 0.0 mm CLR
01:45 11.7 °C 2.4 °C 1021.5 hPa SSW 11.3 km/h 19.3 km/h 53% 0.0 mm CLR
01:50 11.7 °C 2.4 °C 1021.5 hPa SSW 11.3 km/h 19.3 km/h 53% 0.0 mm CLR
01:55 11.7 °C 2.2 °C 1021.4 hPa SW 11.3 km/h 16.1 km/h 52% 0.0 mm CLR
02:00 11.8 °C 2.3 °C 1021.4 hPa SSW 11.3 km/h 16.1 km/h 52% 0.0 mm CLR
02:05 11.8 °C 2.3 °C 1021.4 hPa SSW 9.7 km/h 12.9 km/h 52% 0.0 mm CLR
02:10 11.7 °C 2.2 °C 1021.4 hPa SSW 9.7 km/h 14.5 km/h 52% 0.0 mm CLR
02:15 11.6 °C 2.1 °C 1021.4 hPa SSW 8.0 km/h 12.9 km/h 52% 0.0 mm CLR
02:20 11.5 °C 2.0 °C 1021.4 hPa SSW 8.0 km/h 12.9 km/h 52% 0.0 mm CLR
02:25 11.4 °C 1.9 °C 1021.1 hPa SSW 9.7 km/h 14.5 km/h 52% 0.0 mm CLR
02:30 11.5 °C 1.7 °C 1021.1 hPa SSW 9.7 km/h 12.9 km/h 51% 0.0 mm CLR
02:35 11.6 °C 1.8 °C 1021.1 hPa SW 9.7 km/h 12.9 km/h 51% 0.0 mm CLR
02:40 11.6 °C 1.5 °C 1021.0 hPa SSW 9.7 km/h 11.3 km/h 50% 0.0 mm CLR
02:45 11.7 °C 1.6 °C 1021.0 hPa SSW 8.0 km/h 16.1 km/h 50% 0.0 mm CLR
02:50 11.7 °C 1.3 °C 1021.0 hPa SSW 8.0 km/h 14.5 km/h 49% 0.0 mm CLR
02:55 11.8 °C 1.4 °C 1021.0 hPa SSW 9.7 km/h 11.3 km/h 49% 0.0 mm CLR
03:00 11.8 °C 1.1 °C 1021.0 hPa SSW 9.7 km/h 14.5 km/h 48% 0.0 mm CLR
03:05 11.8 °C 1.1 °C 1021.0 hPa SSW 9.7 km/h 12.9 km/h 48% 0.0 mm CLR
03:10 11.8 °C 1.1 °C 1021.1 hPa SW 9.7 km/h 12.9 km/h 48% 0.0 mm CLR
03:15 11.8 °C 1.1 °C 1021.1 hPa SW 9.7 km/h 12.9 km/h 48% 0.0 mm CLR
03:20 11.6 °C 1.2 °C 1021.1 hPa SW 9.7 km/h 9.7 km/h 49% 0.0 mm CLR
03:25 11.4 °C 1.1 °C 1021.0 hPa SW 8.0 km/h 9.7 km/h 49% 0.0 mm CLR
03:30 11.4 °C 1.1 °C 1021.0 hPa SW 8.0 km/h 12.9 km/h 49% 0.0 mm CLR
03:35 11.5 °C 0.8 °C 1021.0 hPa SSW 8.0 km/h 16.1 km/h 48% 0.0 mm CLR
03:40 11.5 °C 0.6 °C 1020.9 hPa SSW 8.0 km/h 14.5 km/h 47% 0.0 mm CLR
03:45 11.6 °C 0.7 °C 1020.9 hPa SSW 9.7 km/h 16.1 km/h 47% 0.0 mm CLR
03:50 11.6 °C 0.7 °C 1020.9 hPa South 9.7 km/h 14.5 km/h 47% 0.0 mm CLR
03:55 11.4 °C 0.5 °C 1021.0 hPa South 9.7 km/h 12.9 km/h 47% 0.0 mm CLR
04:00 11.3 °C 0.4 °C 1021.0 hPa SSW 9.7 km/h 16.1 km/h 47% 0.0 mm CLR
04:05 11.2 °C 0.3 °C 1021.0 hPa SSW 9.7 km/h 12.9 km/h 47% 0.0 mm CLR
04:10 11.2 °C 0.3 °C 1021.0 hPa SW 9.7 km/h 11.3 km/h 47% 0.0 mm CLR
04:15 11.2 °C 0.3 °C 1021.0 hPa SW 8.0 km/h 9.7 km/h 47% 0.0 mm CLR
04:20 11.1 °C 0.2 °C 1021.0 hPa SSW 8.0 km/h 12.9 km/h 47% 0.0 mm CLR
04:25 11.1 °C 0.2 °C 1020.8 hPa SSW 8.0 km/h 16.1 km/h 47% 0.0 mm CLR
04:30 11.1 °C 0.2 °C 1020.8 hPa South 8.0 km/h 14.5 km/h 47% 0.0 mm CLR
04:35 11.1 °C 0.2 °C 1020.8 hPa SSW 11.3 km/h 16.1 km/h 47% 0.0 mm CLR
04:40 11.1 °C 0.2 °C 1020.8 hPa SW 11.3 km/h 12.9 km/h 47% 0.0 mm CLR
04:45 11.1 °C 0.2 °C 1020.8 hPa SW 8.0 km/h 12.9 km/h 47% 0.0 mm CLR
04:50 10.9 °C 0.0 °C 1020.8 hPa WSW 8.0 km/h 8.0 km/h 47% 0.0 mm CLR
04:55 10.9 °C 0.0 °C 1020.8 hPa SW 3.2 km/h 11.3 km/h 47% 0.0 mm CLR
05:00 10.9 °C 0.0 °C 1020.8 hPa SSW 3.2 km/h 11.3 km/h 47% 0.0 mm CLR
05:05 10.9 °C 0.0 °C 1020.8 hPa SW 4.8 km/h 8.0 km/h 47% 0.0 mm CLR
05:10 10.6 °C 0.3 °C 1020.7 hPa WSW 4.8 km/h 8.0 km/h 49% 0.0 mm CLR
05:15 10.3 °C 0.3 °C 1020.7 hPa WSW 3.2 km/h 9.7 km/h 50% 0.0 mm CLR
05:20 10.2 °C 0.2 °C 1020.7 hPa SW 3.2 km/h 13.0 km/h 50% 0.0 mm CLR
05:25 10.2 °C -0.1 °C 1020.4 hPa SSW 8.0 km/h 16.1 km/h 49% 0.0 mm CLR
05:30 10.2 °C -0.1 °C 1020.4 hPa SSW 8.0 km/h 14.5 km/h 49% 0.0 mm CLR
05:35 10.3 °C 0.1 °C 1020.4 hPa SSW 9.7 km/h 14.5 km/h 49% 0.0 mm CLR
05:40 10.3 °C 0.1 °C 1020.3 hPa SSW 9.7 km/h 17.7 km/h 49% 0.0 mm CLR
05:45 10.3 °C -0.2 °C 1020.3 hPa SW 9.7 km/h 14.5 km/h 48% 0.0 mm CLR
05:50 10.4 °C -0.2 °C 1020.3 hPa SW 9.7 km/h 14.5 km/h 48% 0.0 mm CLR
05:55 10.4 °C -0.2 °C 1020.2 hPa SW 8.0 km/h 12.9 km/h 48% 0.0 mm CLR
06:00 10.5 °C -0.3 °C 1020.2 hPa SW 8.0 km/h 14.5 km/h 47% 0.0 mm CLR
06:05 10.6 °C -0.3 °C 1020.2 hPa SW 8.0 km/h 19.3 km/h 47% 0.0 mm CLR
06:10 10.6 °C -0.6 °C 1020.3 hPa SW 8.0 km/h 16.1 km/h 46% 0.0 mm CLR
06:15 10.6 °C -0.6 °C 1020.3 hPa SW 9.7 km/h 16.1 km/h 46% 0.0 mm CLR
06:20 10.7 °C -0.4 °C 1020.3 hPa SSW 9.7 km/h 16.1 km/h 46% 0.0 mm CLR
06:25 10.7 °C -0.4 °C 1020.2 hPa SSW 11.3 km/h 17.7 km/h 46% 0.0 mm CLR
06:30 10.7 °C -0.4 °C 1020.2 hPa SSW 11.3 km/h 19.3 km/h 46% 0.0 mm CLR
06:35 10.7 °C -0.4 °C 1020.2 hPa SSW 11.3 km/h 14.5 km/h 46% 0.0 mm CLR
06:40 10.7 °C -0.4 °C 1020.3 hPa SSW 11.3 km/h 14.5 km/h 46% 0.0 mm CLR
06:45 10.6 °C -0.8 °C 1020.3 hPa SSW 9.7 km/h 16.1 km/h 45% 0.0 mm CLR
06:50 10.7 °C -0.8 °C 1020.3 hPa SSW 9.7 km/h 11.3 km/h 45% 0.0 mm CLR
06:55 10.7 °C -0.8 °C 1020.3 hPa SW 9.7 km/h 11.3 km/h 45% 0.0 mm CLR
07:00 10.6 °C -0.8 °C 1020.3 hPa SW 9.7 km/h 12.9 km/h 45% 0.0 mm CLR
07:05 10.6 °C -0.8 °C 1020.3 hPa SW 8.0 km/h 11.3 km/h 45% 0.0 mm CLR
07:10 10.6 °C -0.8 °C 1020.3 hPa SW 8.0 km/h 9.7 km/h 45% 0.0 mm CLR
07:15 10.5 °C -0.9 °C 1020.3 hPa SW 8.0 km/h 8.0 km/h 45% 0.0 mm CLR
07:20 10.4 °C -0.7 °C 1020.3 hPa SW 8.0 km/h 8.0 km/h 46% 0.0 mm CLR
07:25 10.3 °C -0.8 °C 1020.4 hPa SW 4.8 km/h 9.7 km/h 46% 0.0 mm CLR
07:30 10.2 °C -0.6 °C 1020.4 hPa WSW 4.8 km/h 9.7 km/h 47% 0.0 mm CLR
07:35 9.9 °C -0.4 °C 1020.4 hPa WSW 4.8 km/h 9.7 km/h 49% 0.0 mm CLR
07:40 9.7 °C -0.5 °C 1020.4 hPa WSW 4.8 km/h 9.7 km/h 49% 0.0 mm CLR
07:45 9.6 °C -0.3 °C 1020.4 hPa SW 8.0 km/h 11.3 km/h 50% 0.0 mm CLR
07:50 9.7 °C -0.5 °C 1020.4 hPa SW 8.0 km/h 12.9 km/h 49% 0.0 mm CLR
07:55 9.9 °C -0.6 °C 1020.3 hPa SW 8.0 km/h 12.9 km/h 48% 0.0 mm CLR
08:00 10.1 °C -0.4 °C 1020.3 hPa SW 8.0 km/h 12.9 km/h 48% 0.0 mm CLR
08:05 10.2 °C -0.3 °C 1020.3 hPa SW 9.7 km/h 11.3 km/h 48% 0.0 mm CLR
08:10 10.2 °C -0.3 °C 1020.3 hPa SW 9.7 km/h 14.5 km/h 48% 0.0 mm CLR
08:15 10.3 °C -0.3 °C 1020.3 hPa SW 8.0 km/h 11.3 km/h 48% 0.0 mm CLR
08:20 10.2 °C -0.3 °C 1020.3 hPa SW 8.0 km/h 11.3 km/h 48% 0.0 mm CLR
08:25 10.2 °C -0.1 °C 1020.1 hPa WSW 8.0 km/h 11.3 km/h 49% 0.0 mm CLR
08:30 9.8 °C -0.1 °C 1020.1 hPa WSW 8.0 km/h 12.9 km/h 50% 0.0 mm CLR
08:35 9.7 °C 0.1 °C 1020.1 hPa WSW 8.0 km/h 12.9 km/h 51% 0.0 mm CLR
08:40 9.6 °C 0.2 °C 1020.3 hPa SW 8.0 km/h 14.5 km/h 52% 0.0 mm CLR
08:45 9.7 °C 0.3 °C 1020.3 hPa SW 8.0 km/h 14.5 km/h 52% 0.0 mm CLR
08:50 9.8 °C 0.1 °C 1020.3 hPa SW 8.0 km/h 9.7 km/h 51% 0.0 mm CLR
08:55 9.9 °C 0.2 °C 1020.2 hPa WSW 6.4 km/h 7.4 km/h 51% 0.0 mm CLR
09:00 10.0 °C 0.6 °C 1020.2 hPa SW 8.0 km/h 8.0 km/h 52% 0.0 mm CLR
09:05 10.1 °C 0.1 °C 1020.2 hPa SW 3.2 km/h 9.7 km/h 50% 0.0 mm CLR
09:10 10.2 °C 0.2 °C 1020.3 hPa SSW 3.2 km/h 9.7 km/h 50% 0.0 mm CLR
09:15 10.6 °C 0.3 °C 1020.3 hPa SSW 3.2 km/h 4.8 km/h 49% 0.0 mm CLR
09:20 10.8 °C 0.5 °C 1020.3 hPa SSW 3.2 km/h 9.7 km/h 49% 0.0 mm CLR
09:25 10.9 °C 0.6 °C 1020.2 hPa South 4.8 km/h 12.9 km/h 49% 0.0 mm CLR
09:30 10.7 °C 0.9 °C 1020.2 hPa South 4.8 km/h 12.9 km/h 51% 0.0 mm CLR
09:35 10.6 °C 1.1 °C 1020.2 hPa South 8.0 km/h 11.3 km/h 52% 0.0 mm CLR
09:40 10.3 °C 1.4 °C 1020.2 hPa South 8.0 km/h 11.3 km/h 54% 0.0 mm CLR
09:45 10.1 °C 1.4 °C 1020.2 hPa South 8.0 km/h 11.3 km/h 55% 0.0 mm CLR
09:50 10.0 °C 1.1 °C 1020.2 hPa SSW 8.0 km/h 11.3 km/h 54% 0.0 mm CLR
09:55 10.2 °C 1.0 °C 1020.4 hPa SW 8.0 km/h 11.3 km/h 53% 0.0 mm CLR
10:00 10.3 °C 0.9 °C 1020.4 hPa SW 8.0 km/h 14.5 km/h 52% 0.0 mm CLR
10:05 10.6 °C 0.8 °C 1020.4 hPa SSW 8.0 km/h 12.9 km/h 51% 0.0 mm CLR
10:10 10.7 °C 0.7 °C 1020.4 hPa SSW 8.0 km/h 12.9 km/h 50% 0.0 mm CLR
10:15 10.8 °C 0.8 °C 1020.4 hPa South 8.0 km/h 11.3 km/h 50% 0.0 mm CLR
10:20 10.8 °C 0.8 °C 1020.4 hPa SW 8.4 km/h 9.3 km/h 50% 0.0 mm CLR
10:25 10.8 °C 0.6 °C 1020.6 hPa SSW 8.0 km/h 14.5 km/h 49% 0.0 mm CLR
10:30 10.9 °C 0.9 °C 1020.6 hPa SSW 8.0 km/h 9.7 km/h 50% 0.0 mm CLR
10:35 11.0 °C 0.9 °C 1020.6 hPa SSW 8.0 km/h 11.3 km/h 50% 0.0 mm CLR
10:40 11.2 °C 0.9 °C 1020.6 hPa SSW 7.6 km/h 13.0 km/h 49% 0.0 mm CLR
10:45 11.5 °C 1.1 °C 1020.6 hPa SSW 8.0 km/h 12.9 km/h 49% 0.0 mm CLR
10:50 11.8 °C 0.8 °C 1020.6 hPa SSW 8.0 km/h 14.5 km/h 47% 0.0 mm CLR
10:55 12.1 °C 1.1 °C 1020.3 hPa SSW 8.0 km/h 14.5 km/h 47% 0.0 mm CLR
11:00 12.2 °C 1.5 °C 1020.3 hPa SSW 8.0 km/h 12.9 km/h 48% 0.0 mm CLR
11:05 12.4 °C 1.4 °C 1020.3 hPa SSW 8.0 km/h 12.9 km/h 47% 0.0 mm CLR
11:10 12.6 °C 1.6 °C 1020.3 hPa SW 8.0 km/h 11.3 km/h 47% 0.0 mm CLR
11:15 12.7 °C 1.7 °C 1020.3 hPa SW 8.0 km/h 9.7 km/h 47% 0.0 mm CLR
11:20 12.9 °C 1.5 °C 1020.3 hPa SW 8.0 km/h 11.3 km/h 46% 0.0 mm CLR
11:25 13.1 °C 1.7 °C 1020.2 hPa SW 5.8 km/h 9.3 km/h 46% 0.0 mm CLR
11:30 13.4 °C 1.3 °C 1020.2 hPa SW 4.8 km/h 9.7 km/h 44% 0.0 mm CLR
11:35 13.6 °C 0.9 °C 1020.2 hPa SSW 8.0 km/h 9.7 km/h 42% 0.0 mm CLR
11:40 13.9 °C 1.2 °C 1019.9 hPa SSW 8.0 km/h 9.7 km/h 42% 0.0 mm CLR
11:45 14.2 °C 0.8 °C 1019.9 hPa SSW 8.0 km/h 12.9 km/h 40% 0.0 mm CLR
11:50 14.3 °C 0.9 °C 1019.9 hPa SW 8.0 km/h 12.9 km/h 40% 0.0 mm CLR
11:55 14.4 °C 0.9 °C 1019.7 hPa WSW 8.0 km/h 11.3 km/h 40% 0.0 mm CLR
12:00 14.6 °C 1.5 °C 1019.7 hPa WSW 8.0 km/h 12.9 km/h 41% 0.0 mm CLR
12:05 14.9 °C 1.0 °C 1019.7 hPa SSW 8.0 km/h 11.3 km/h 39% 0.0 mm CLR
12:10 15.2 °C 0.6 °C 1019.2 hPa South 8.0 km/h 11.3 km/h 37% 0.0 mm CLR
12:15 15.4 °C 0.8 °C 1019.2 hPa SSW 8.0 km/h 11.3 km/h 37% 0.0 mm CLR
12:20 15.7 °C 0.7 °C 1019.2 hPa SSW 8.0 km/h 14.5 km/h 36% 0.0 mm CLR
12:25 15.9 °C 0.4 °C 1019.0 hPa SSW 8.0 km/h 11.3 km/h 35% 0.0 mm CLR
12:30 16.1 °C -0.2 °C 1019.0 hPa SSW 8.0 km/h 12.9 km/h 33% 0.0 mm CLR
12:35 16.3 °C 0.0 °C 1019.0 hPa SW 8.0 km/h 11.3 km/h 33% 0.0 mm CLR
12:40 16.4 °C 0.1 °C 1018.5 hPa SW 8.0 km/h 14.5 km/h 33% 0.0 mm CLR
12:45 16.5 °C 0.2 °C 1018.5 hPa WSW 8.0 km/h 14.5 km/h 33% 0.0 mm CLR
12:50 16.7 °C 0.7 °C 1018.5 hPa SW 8.0 km/h 12.9 km/h 34% 0.0 mm CLR
12:55 16.9 °C 0.9 °C 1018.3 hPa South 5.8 km/h 9.3 km/h 34% 0.0 mm CLR
13:00 17.2 °C 1.2 °C 1018.3 hPa SW 4.8 km/h 11.3 km/h 34% 0.0 mm CLR
13:05 17.2 °C 0.8 °C 1018.3 hPa SSW 8.0 km/h 12.9 km/h 33% 0.0 mm CLR
13:10 17.3 °C 0.9 °C 1018.1 hPa SW 8.0 km/h 12.9 km/h 33% 0.0 mm CLR
13:15 17.4 °C 1.4 °C 1018.1 hPa SW 4.8 km/h 11.3 km/h 34% 0.0 mm CLR
13:20 17.6 °C 1.6 °C 1018.1 hPa SSW 4.8 km/h 11.3 km/h 34% 0.0 mm CLR
13:25 17.6 °C 1.6 °C 1017.9 hPa SSW 8.0 km/h 12.9 km/h 34% 0.0 mm CLR
13:30 17.6 °C 1.6 °C 1017.9 hPa SSW 8.0 km/h 12.9 km/h 34% 0.0 mm CLR
13:35 17.6 °C 1.6 °C 1017.9 hPa SSW 8.0 km/h 11.3 km/h 34% 0.0 mm CLR
13:40 17.7 °C 1.6 °C 1017.9 hPa South 8.0 km/h 14.5 km/h 34% 0.0 mm CLR
13:45 17.8 °C 1.7 °C 1017.9 hPa South 8.0 km/h 14.5 km/h 34% 0.0 mm CLR
13:50 17.9 °C 2.2 °C 1017.9 hPa SSW 8.0 km/h 12.9 km/h 35% 0.0 mm CLR
13:55 18.1 °C 2.4 °C 1017.6 hPa South 8.0 km/h 14.5 km/h 35% 0.0 mm CLR
14:00 18.1 °C 2.4 °C 1017.6 hPa South 8.0 km/h 14.5 km/h 35% 0.0 mm CLR
14:05 18.2 °C 2.5 °C 1017.6 hPa SSE 9.7 km/h 14.5 km/h 35% 0.0 mm CLR
14:10 18.3 °C 2.6 °C 1017.2 hPa SSE 9.7 km/h 16.1 km/h 35% 0.0 mm CLR
14:15 18.4 °C 2.7 °C 1017.2 hPa SSE 9.7 km/h 12.9 km/h 35% 0.0 mm CLR
14:20 18.6 °C 2.4 °C 1017.2 hPa South 9.7 km/h 12.9 km/h 34% 0.0 mm CLR
14:25 18.7 °C 2.6 °C 1016.9 hPa South 9.7 km/h 16.1 km/h 34% 0.0 mm CLR
14:30 18.9 °C 2.7 °C 1016.9 hPa South 9.7 km/h 16.1 km/h 34% 0.0 mm CLR
14:35 19.1 °C 2.4 °C 1016.9 hPa SSW 9.7 km/h 16.1 km/h 33% 0.0 mm CLR
14:40 19.3 °C 3.0 °C 1016.9 hPa SSW 9.7 km/h 14.5 km/h 34% 0.0 mm CLR
14:45 19.3 °C 2.6 °C 1016.9 hPa SSW 9.7 km/h 16.1 km/h 33% 0.0 mm CLR
14:50 19.3 °C 2.6 °C 1016.9 hPa SSW 9.7 km/h 14.5 km/h 33% 0.0 mm CLR
14:55 19.4 °C 2.7 °C 1016.9 hPa SSW 11.3 km/h 16.1 km/h 33% 0.0 mm CLR
15:00 19.4 °C 2.7 °C 1016.9 hPa SSW 11.3 km/h 14.5 km/h 33% 0.0 mm CLR
15:05 19.4 °C 2.7 °C 1016.9 hPa SW 9.7 km/h 19.3 km/h 33% 0.0 mm CLR
15:10 19.6 °C 3.3 °C 1017.0 hPa West 9.7 km/h 22.5 km/h 34% 0.0 mm CLR
15:15 19.8 °C 3.5 °C 1017.0 hPa WSW 11.3 km/h 33.8 km/h 34% 0.0 mm CLR
15:20 20.1 °C 3.7 °C 1017.0 hPa WSW 11.3 km/h 22.5 km/h 34% 0.0 mm CLR
15:25 20.0 °C 3.7 °C 1017.1 hPa West 14.5 km/h 41.8 km/h 34% 0.0 mm CLR
15:30 19.9 °C 3.6 °C 1017.1 hPa WNW 14.5 km/h 41.8 km/h 34% 0.0 mm CLR
15:35 19.8 °C 3.5 °C 1017.1 hPa WNW 25.7 km/h 35.4 km/h 34% 0.0 mm CLR
15:40 19.8 °C 3.9 °C 1017.1 hPa WNW 25.7 km/h 37.0 km/h 35% 0.0 mm CLR
15:45 19.7 °C 3.8 °C 1017.1 hPa West 20.9 km/h 35.4 km/h 35% 0.0 mm CLR
15:50 19.7 °C 4.2 °C 1017.1 hPa West 20.9 km/h 27.4 km/h 36% 0.0 mm FEW
15:55 19.7 °C 4.2 °C 1017.1 hPa West 16.1 km/h 37.0 km/h 36% 0.0 mm FEW
16:00 19.8 °C 4.7 °C 1017.1 hPa WSW 16.1 km/h 35.4 km/h 37% 0.0 mm CLR
16:05 19.7 °C 5.0 °C 1017.1 hPa WSW 19.3 km/h 22.5 km/h 38% 0.0 mm FEW
16:10 19.6 °C 4.8 °C 1016.8 hPa West 19.3 km/h 27.4 km/h 38% 0.0 mm FEW
16:15 19.4 °C 5.1 °C 1016.8 hPa West 14.5 km/h 22.5 km/h 39% 0.0 mm FEW
16:20 19.3 °C 4.9 °C 1016.8 hPa West 14.5 km/h 22.5 km/h 39% 0.0 mm FEW
16:25 19.2 °C 5.2 °C 1017.1 hPa West 12.9 km/h 22.5 km/h 40% 0.0 mm FEW
16:30 19.1 °C 5.2 °C 1017.1 hPa West 12.9 km/h 14.5 km/h 40% 0.0 mm FEW
16:35 18.9 °C 5.3 °C 1017.1 hPa WNW 9.7 km/h 12.9 km/h 41% 0.0 mm FEW
16:40 18.8 °C 5.3 °C 1017.2 hPa WNW 9.7 km/h 14.5 km/h 41% 0.0 mm FEW
16:45 18.7 °C 5.2 °C 1017.2 hPa WNW 8.0 km/h 14.5 km/h 41% 0.0 mm FEW
16:50 18.6 °C 5.1 °C 1017.2 hPa WNW 8.0 km/h 22.5 km/h 41% 0.0 mm CLR
16:55 18.6 °C 5.1 °C 1017.4 hPa WNW 11.3 km/h 20.9 km/h 41% 0.0 mm CLR
17:00 18.5 °C 5.0 °C 1017.4 hPa WNW 11.3 km/h 17.7 km/h 41% 0.0 mm CLR
17:05 18.6 °C 5.1 °C 1017.4 hPa West 12.9 km/h 25.7 km/h 41% 0.0 mm CLR
17:10 18.6 °C 5.1 °C 1017.6 hPa West 12.9 km/h 32.2 km/h 41% 0.0 mm CLR
17:15 18.4 °C 5.3 °C 1017.6 hPa West 12.9 km/h 30.6 km/h 42% 0.0 mm CLR
17:20 18.3 °C 5.2 °C 1017.6 hPa WNW 12.9 km/h 29.0 km/h 42% 0.0 mm FEW
17:25 18.2 °C 5.4 °C 1017.9 hPa WNW 12.9 km/h 24.1 km/h 43% 0.0 mm FEW
17:30 17.9 °C 5.4 °C 1017.9 hPa WNW 12.9 km/h 25.7 km/h 44% 0.0 mm FEW
17:35 17.7 °C 5.6 °C 1017.9 hPa WNW 14.5 km/h 25.7 km/h 45% 0.0 mm FEW
17:40 17.4 °C 5.7 °C 1018.2 hPa WNW 14.5 km/h 27.4 km/h 46% 0.0 mm FEW
17:45 17.3 °C 6.2 °C 1018.2 hPa WNW 14.5 km/h 48.3 km/h 48% 0.0 mm FEW
17:50 17.2 °C 6.4 °C 1018.2 hPa WNW 14.5 km/h 48.3 km/h 49% 0.0 mm CLR
17:55 17.1 °C 6.3 °C 1018.4 hPa WNW 24.1 km/h 49.9 km/h 49% 0.0 mm CLR
18:00 17.0 °C 6.2 °C 1018.4 hPa WNW 24.1 km/h 46.7 km/h 49% 0.0 mm CLR
18:05 16.9 °C 6.1 °C 1018.4 hPa WNW 27.4 km/h 51.5 km/h 49% 0.0 mm CLR
18:10 16.8 °C 6.0 °C 1018.7 hPa WNW 27.4 km/h 41.8 km/h 49% 0.0 mm CLR
18:15 16.6 °C 6.1 °C 1018.7 hPa WNW 24.1 km/h 37.0 km/h 50% 0.0 mm CLR
18:20 16.4 °C 5.9 °C 1018.7 hPa WNW 24.1 km/h 38.6 km/h 50% 0.0 mm CLR
18:25 16.3 °C 5.8 °C 1019.3 hPa WNW 20.9 km/h 46.7 km/h 50% 0.0 mm CLR
18:30 16.2 °C 5.4 °C 1019.3 hPa WNW 20.9 km/h 38.6 km/h 49% 0.0 mm CLR
18:35 16.2 °C 5.8 °C 1019.3 hPa WNW 22.5 km/h 40.2 km/h 50% 0.0 mm CLR
18:40 16.1 °C 5.7 °C 1019.9 hPa WNW 22.5 km/h 27.4 km/h 50% 0.0 mm CLR
18:45 15.9 °C 5.2 °C 1019.9 hPa WNW 16.1 km/h 22.5 km/h 49% 0.0 mm CLR
18:50 15.9 °C 5.2 °C 1019.9 hPa WNW 16.1 km/h 24.1 km/h 49% 0.0 mm CLR
18:55 15.8 °C 5.1 °C 1020.2 hPa WNW 11.3 km/h 20.9 km/h 49% 0.0 mm CLR
19:00 15.7 °C 5.3 °C 1020.2 hPa WNW 11.3 km/h 30.6 km/h 50% 0.0 mm CLR
19:05 15.6 °C 4.9 °C 1020.2 hPa NW 12.9 km/h 41.8 km/h 49% 0.0 mm CLR
19:10 15.5 °C 5.1 °C 1020.8 hPa WNW 12.9 km/h 35.4 km/h 50% 0.0 mm CLR
19:15 15.4 °C 5.0 °C 1020.8 hPa WNW 19.3 km/h 41.8 km/h 50% 0.0 mm CLR
19:20 15.4 °C 5.0 °C 1020.8 hPa WNW 19.3 km/h 33.8 km/h 50% 0.0 mm CLR
19:25 15.2 °C 4.9 °C 1020.6 hPa WNW 19.3 km/h 33.8 km/h 50% 0.0 mm CLR
19:30 15.2 °C 4.8 °C 1020.6 hPa WNW 19.3 km/h 41.8 km/h 50% 0.0 mm CLR
19:35 15.1 °C 4.8 °C 1020.6 hPa WNW 22.5 km/h 37.0 km/h 50% 0.0 mm CLR
19:40 14.9 °C 4.8 °C 1020.8 hPa WNW 22.5 km/h 37.0 km/h 51% 0.0 mm CLR
19:45 14.8 °C 4.8 °C 1020.8 hPa WNW 24.1 km/h 48.3 km/h 51% 0.0 mm CLR
19:50 14.7 °C 4.6 °C 1020.8 hPa WNW 24.1 km/h 40.2 km/h 51% 0.0 mm CLR
19:55 14.5 °C 4.5 °C 1021.0 hPa WNW 24.1 km/h 41.8 km/h 51% 0.0 mm CLR
20:00 14.4 °C 4.4 °C 1021.0 hPa WNW 24.1 km/h 37.0 km/h 51% 0.0 mm CLR
20:05 14.3 °C 4.3 °C 1021.0 hPa WNW 20.9 km/h 41.8 km/h 51% 0.0 mm CLR
20:10 14.2 °C 4.5 °C 1021.3 hPa WNW 20.9 km/h 33.8 km/h 52% 0.0 mm CLR
20:15 14.2 °C 4.5 °C 1021.3 hPa WNW 19.3 km/h 33.8 km/h 52% 0.0 mm CLR
20:20 14.1 °C 4.4 °C 1021.3 hPa WNW 19.3 km/h 38.6 km/h 52% 0.0 mm CLR
20:25 14.1 °C 4.6 °C 1021.4 hPa WNW 16.1 km/h 29.0 km/h 53% 0.0 mm CLR
20:30 14.0 °C 4.6 °C 1021.4 hPa NW 16.1 km/h 29.0 km/h 53% 0.0 mm CLR
20:35 13.9 °C 4.4 °C 1021.4 hPa North 11.3 km/h 11.3 km/h 53% 0.0 mm CLR
20:40 13.8 °C 4.4 °C 1021.7 hPa NNE 11.3 km/h 19.3 km/h 53% 0.0 mm CLR
20:45 13.8 °C 4.4 °C 1021.7 hPa NNW 8.0 km/h 19.3 km/h 53% 0.0 mm CLR
20:50 13.8 °C 4.6 °C 1021.7 hPa North 8.0 km/h 14.5 km/h 54% 0.0 mm CLR
20:55 13.7 °C 4.6 °C 1021.9 hPa West 4.8 km/h 11.3 km/h 54% 0.0 mm CLR
21:00 13.7 °C 4.6 °C 1021.9 hPa SSE 4.8 km/h 16.1 km/h 54% 0.0 mm CLR
21:05 13.6 °C 4.4 °C 1021.9 hPa SE 8.4 km/h 19.0 km/h 54% 0.0 mm CLR
21:10 13.6 °C 4.4 °C 1022.1 hPa ESE 8.0 km/h 22.5 km/h 54% 0.0 mm CLR
21:15 13.7 °C 4.6 °C 1022.1 hPa ESE 11.3 km/h 14.5 km/h 54% 0.0 mm CLR
21:20 13.7 °C 4.3 °C 1022.1 hPa SW 10.3 km/h 20.4 km/h 53% 0.0 mm CLR
21:25 13.8 °C 4.4 °C 1022.4 hPa South 9.7 km/h 16.1 km/h 53% 0.0 mm CLR
21:30 13.8 °C 4.4 °C 1022.4 hPa WSW 9.7 km/h 14.5 km/h 53% 0.0 mm CLR
21:35 13.8 °C 4.4 °C 1022.4 hPa West 8.0 km/h 22.5 km/h 53% 0.0 mm CLR
21:40 13.8 °C 4.4 °C 1022.3 hPa West 8.0 km/h 33.8 km/h 53% 0.0 mm CLR
21:45 13.8 °C 4.1 °C 1022.3 hPa West 14.5 km/h 32.2 km/h 52% 0.0 mm CLR
21:50 13.8 °C 4.1 °C 1022.3 hPa West 14.5 km/h 20.9 km/h 52% 0.0 mm CLR
21:55 13.8 °C 4.1 °C 1022.7 hPa West 11.3 km/h 22.5 km/h 52% 0.0 mm CLR
22:00 13.8 °C 4.1 °C 1022.7 hPa WNW 11.3 km/h 19.3 km/h 52% 0.0 mm CLR
22:05 13.8 °C 4.1 °C 1022.7 hPa WNW 9.7 km/h 20.9 km/h 52% 0.0 mm CLR
22:10 13.7 °C 4.0 °C 1022.8 hPa West 9.7 km/h 20.9 km/h 52% 0.0 mm CLR
22:15 13.7 °C 4.0 °C 1022.8 hPa West 12.9 km/h 25.7 km/h 52% 0.0 mm CLR
22:20 13.7 °C 4.0 °C 1022.8 hPa WNW 12.9 km/h 24.1 km/h 52% 0.0 mm CLR
22:25 13.7 °C 4.0 °C 1022.8 hPa WNW 12.9 km/h 20.9 km/h 52% 0.0 mm CLR
22:30 13.6 °C 3.9 °C 1022.8 hPa WNW 12.9 km/h 22.5 km/h 52% 0.0 mm CLR
22:35 13.6 °C 3.9 °C 1022.8 hPa WNW 12.9 km/h 20.9 km/h 52% 0.0 mm CLR
22:40 13.6 °C 3.9 °C 1023.1 hPa WNW 12.9 km/h 20.9 km/h 52% 0.0 mm CLR
22:45 13.4 °C 4.0 °C 1023.1 hPa NW 10.3 km/h 18.5 km/h 53% 0.0 mm CLR
22:50 13.3 °C 3.9 °C 1023.1 hPa WNW 11.3 km/h 27.4 km/h 53% 0.0 mm CLR
22:55 13.4 °C 3.7 °C 1023.0 hPa WNW 14.5 km/h 29.0 km/h 52% 0.0 mm CLR
23:00 13.4 °C 4.0 °C 1023.0 hPa WNW 14.5 km/h 30.6 km/h 53% 0.0 mm CLR
23:05 13.4 °C 3.7 °C 1023.0 hPa WNW 19.3 km/h 29.0 km/h 52% 0.0 mm CLR
23:10 13.3 °C 3.7 °C 1023.0 hPa WNW 19.3 km/h 32.2 km/h 52% 0.0 mm CLR
23:15 13.5 °C 3.8 °C 1023.0 hPa WNW 19.3 km/h 30.6 km/h 52% 0.0 mm CLR
23:20 13.4 °C 3.7 °C 1023.0 hPa WNW 19.3 km/h 29.0 km/h 52% 0.0 mm CLR
23:25 13.6 °C 3.6 °C 1022.9 hPa WNW 16.1 km/h 38.6 km/h 51% 0.0 mm CLR
23:30 13.6 °C 3.6 °C 1022.9 hPa WNW 16.1 km/h 29.0 km/h 51% 0.0 mm CLR
23:35 13.4 °C 3.4 °C 1022.9 hPa WNW 20.9 km/h 33.8 km/h 51% 0.0 mm CLR
23:40 13.4 °C 3.4 °C 1022.8 hPa WNW 20.9 km/h 37.0 km/h 51% 0.0 mm CLR
23:45 13.3 °C 3.7 °C 1022.8 hPa WNW 24.1 km/h 38.6 km/h 52% 0.0 mm CLR
23:50 13.2 °C 3.6 °C 1022.8 hPa WNW 24.1 km/h 40.2 km/h 52% 0.0 mm CLR
23:55 13.2 °C 3.5 °C 1022.8 hPa WNW 22.5 km/h 35.4 km/h 52% 0.0 mm CLR
Murcia-Puente Tocinos, España
Compliments of Weather Underground - 2.75 mb

La estación de MeteoMurcia.com, publica sus datos en los siguientes proyectos:

Weather Underground PWS IMURCIAP2 Meteoclimatic www.awekas.at

W3Counter
Web Analytics